sat.trackr.live / text

‹ back to catalog

STARLINK-35248

NORAD 65598 · 2025-207G

PAYLOAD ACTIVE UNKNOWN

§ Identity

Operator
Country
US
Launch date
2025-09-13
Launch site
AFWTR
Launch vehicle
Mass (kg)
RCS (m²)

Purposes: comms

External: N2YO · Heavens-Above · Gunter

§ Orbital elements

Epoch: 2026-05-25T04:23:33.372960Z

Period
95.64 min
Inclination
97.4537°
Eccentricity
0.0003046
Mean motion
15.05635708 rev/d
Perigee alt
547.4 km
Apogee alt
551.7 km
Semi-major
6,927.7 km
B*
-4.7205e-4
RAAN
213.7307°
Arg perigee
165.0038°
Mean anomaly
195.1280°
Rev number
3,977

§ Raw data

STARLINK-352481 65598U 25207G   26145.18302515 -.00006861  00000+0 -47205-3 0  99952 65598  97.4537 213.7307 0003046 165.0038 195.1280 15.05635708 39771

JSON: /api/v1/satellites/65598 · /tle

For live sub-satellite position, see the globe view (requires WebGL).

§ Visibility from observer

Set your observer location to see the next 7 days of passes ≥ 10°. The values pass through the URL so the page stays shareable.

No JS? Fill the form by hand. The geolocation button needs JavaScript.